DW6455 Weather Reports


Display with metric or nautical units.
time (UTC)temp
F
wind
direction
speed
MPH
gust
MPH
rain 1hr
in
rain 24hr
in
rain mn
in
humidity
%
barometer
mb
20260904000520 47 0.0 0.0 0.00 0.00 0.00 1 1001.3
20260903235520 47 0.0 0.0 0.00 0.00 0.00 1 1001.4
20260903234521 47 0.0 0.0 0.00 0.00 0.00 1 1001.4
20260903233520 47 0.0 0.0 0.00 0.00 0.00 1 1001.6
20260903232521 47 0.0 0.0 0.00 0.00 0.00 1 1001.6
20260903231601 47 0.0 0.0 0.00 0.00 0.00 1 1001.7
20260903191521 52 0.0 0.0 0.00 0.00 0.00 1 1002.8
20260903190521 52 0.0 0.0 0.00 0.00 0.00 1 1002.8
20260903185521 52 0.0 2.0 0.00 0.00 0.00 1 1002.8
20260903184521 53 0.0 1.0 0.00 0.00 0.00 1 1002.8
20260903183521 53 0.0 3.0 0.00 0.00 0.00 1 1002.6
20260903182521 53 0.0 6.0 0.00 0.00 0.00 1 1002.7
20260903181521 53 158 2.0 6.0 0.00 0.00 0.00 1 1002.6
20260903180521 53 180 2.0 6.0 0.00 0.00 0.00 1 1002.6
20260903175521 52 270 1.0 3.0 0.00 0.01 0.00 1 1002.7
20260903174521 52 0.0 2.0 0.00 0.01 0.00 1 1002.5
20260903173521 52 0.0 0.0 0.00 0.01 0.00 1 1002.5
20260903172521 52 0.0 0.0 0.00 0.01 0.00 1 1002.2
20260903171541 52 0.0 3.0 0.00 0.01 0.00 1 1002.3
20260903161521 54 0.0 2.0 0.00 0.01 0.00 5 1002.3
20260903160521 54 293 1.0 4.0 0.00 0.01 0.00 1 1002.3
20260903155521 54 0.0 0.0 0.00 0.01 0.00 1 1002.5
20260903154522 55 0.0 3.0 0.00 0.01 0.00 1 1002.5
20260903153521 55 0.0 0.0 0.00 0.01 0.00 6 1002.2
20260903152521 55 0.0 0.0 0.00 0.01 0.00 19 1002.0
20260903151521 56 0.0 3.0 0.00 0.01 0.00 21 1002.1
20260903150601 56 0.0 2.0 0.00 0.01 0.00 27 1002.3
20260903140521 59 113 2.0 5.0 0.00 0.01 0.00 13 1002.5
20260903135521 59 0.0 0.0 0.00 0.01 0.00 5 1002.4
20260903134521 58 0.0 0.0 0.00 0.01 0.00 22 1002.4
20260903133521 59 0.0 2.0 0.00 0.01 0.00 57 1002.3
20260903132520 61 0.0 3.0 0.00 0.01 0.00 73 1002.4
20260903131521 62 0.0 2.0 0.00 0.01 0.00 73 1002.4
20260903130521 63 180 1.0 4.0 0.00 0.01 0.00 71 1002.4
20260903125541 63 180 4.0 13.0 0.00 0.01 0.00 69 1002.4
20260903105521 63 203 1.0 4.0 0.00 0.01 0.00 73 1002.6
20260903104521 63 293 1.0 4.0 0.00 0.01 0.00 71 1002.9
20260903103521 64 225 1.0 7.0 0.00 0.01 0.00 73 1002.9
20260903102521 64 270 1.0 6.0 0.00 0.01 0.00 72 1003.1
20260903101521 65 0.0 3.0 0.00 0.01 0.00 72 1003.1
20260903100521 66 270 2.0 11.0 0.00 0.01 0.00 69 1003.1
20260903095521 66 180 6.0 14.0 0.00 0.01 0.00 72 1003.1
20260903094621 65 225 2.0 13.0 0.00 0.01 0.00 72 1003.2
20260903064521 59 180 3.0 8.0 0.00 0.01 0.00 1 1003.5
20260903063521 58 180 4.0 9.0 0.00 0.01 0.00 1 1003.5
20260903062521 58 203 4.0 12.0 0.00 0.01 0.00 1 1003.6
20260903061521 57 180 3.0 8.0 0.00 0.01 0.00 1 1003.6
20260903060521 57 225 1.0 6.0 0.00 0.01 0.00 1 1003.7
20260903055521 57 0.0 4.0 0.00 0.01 0.00 1 1003.8
20260903054542 57 203 2.0 8.0 0.00 0.01 0.00 1 1003.8
20260903044521 55 225 2.0 5.0 0.00 0.01 0.00 1 1003.8
20260903043521 55 203 2.0 10.0 0.00 0.01 0.00 1 1003.8
20260903042521 54 203 1.0 4.0 0.00 0.01 0.00 1 1003.8
20260903041521 54 0.0 6.0 0.00 0.01 0.00 1 1003.8
20260903040522 54 0.0 0.0 0.00 0.01 0.00 1 1003.9
20260903035521 54 0.0 0.0 0.00 0.01 0.00 1 1004.0
20260903034521 54 225 1.0 5.0 0.00 0.01 0.00 1 1004.0
20260903033521 54 0.0 2.0 0.00 0.01 0.00 1 1004.0
20260903032521 54 0.0 3.0 0.00 0.01 0.00 1 1004.0
20260903031521 55 0.0 0.0 0.00 0.01 0.00 1 1004.0
20260903030521 55 0.0 0.0 0.00 0.01 0.00 1 1004.0
20260903025521 55 0.0 0.0 0.00 0.01 0.00 1 1004.0
20260903024521 56 0.0 2.0 0.00 0.01 0.00 1 1004.0
20260903023521 56 0.0 2.0 0.00 0.01 0.00 1 1004.1
20260903022521 57 0.0 4.0 0.00 0.01 0.00 1 1004.2
20260903021521 57 203 1.0 4.0 0.00 0.01 0.00 1 1004.3
20260903020521 57 0.0 0.0 0.00 0.01 0.00 1 1004.3
20260903015521 57 0.0 4.0 0.00 0.01 0.00 1 1004.4
20260903014521 57 0.0 4.0 0.00 0.01 0.00 1 1004.4
20260903013521 56 158 2.0 6.0 0.00 0.01 0.00 1 1004.4
20260903012521 56 0.0 0.0 0.00 0.01 0.00 1 1004.5
20260903011521 56 0.0 0.0 0.00 0.01 0.00 1 1004.6
20260903010521 56 0.0 1.0 0.00 0.01 0.00 1 1004.7
20260903005521 55 0.0 0.0 0.00 0.01 0.00 1 1004.8
20260903004521 55 0.0 0.0 0.00 0.01 0.00 1 1004.8
20260903003541 55 0.0 3.0 0.00 0.01 0.00 1 1004.9